FW8690 Weather Reports


Display with metric or nautical units.
time (UTC)temp
F
wind
direction
speed
MPH
gust
MPH
rain 1hr
in
rain 24hr
in
rain mn
in
humidity
%
barometer
mb
20260505201004 52 0 0.0 0.0 0.00 0.00 0.00 73 1013.5
20260505200504 53 0 0.0 0.0 0.00 0.00 0.00 73 1013.5
20260505200004 53 0 0.0 0.0 0.00 0.00 0.00 73 1013.4
20260505195504 53 0 0.0 0.0 0.00 0.00 0.00 73 1013.3
20260505195004 53 0 0.0 0.0 0.00 0.00 0.00 73 1013.3
20260505194504 53 0 0.0 0.0 0.00 0.00 0.00 73 1013.2
20260505194003 53 0 0.0 0.0 0.00 0.00 0.00 73 1013.1
20260505193503 53 0 0.0 0.0 0.00 0.00 0.00 73 1013.2
20260505193003 53 0 0.0 0.0 0.00 0.00 0.00 73 1013.1
20260505192504 53 0 0.0 0.0 0.00 0.00 0.00 73 1013.0
20260505192214 53 308 0.0 0.0 0.00 0.00 0.00 72 1013.0
20260505191504 54 308 0.0 0.0 0.00 0.00 0.00 72 1013.1
20260505191214 54 0 0.0 0.0 0.00 0.00 0.00 72 1013.2
20260505190713 54 0 0.0 0.0 0.00 0.00 0.00 72 1013.2
20260505190214 54 0 0.0 0.0 0.00 0.00 0.00 72 1013.1
20260505185503 54 0 0.0 0.0 0.00 0.00 0.00 72 1013.0
20260505185003 54 0 0.0 0.0 0.00 0.00 0.00 72 1013.0
20260505184503 54 0 0.0 0.0 0.00 0.00 0.00 72 1013.0
20260505184004 54 0 0.0 0.0 0.00 0.00 0.00 72 1013.0
20260505183504 54 0 0.0 0.0 0.00 0.00 0.00 72 1012.9
20260505183004 55 0 0.0 0.0 0.00 0.00 0.00 71 1012.9
20260505182504 55 0 0.0 0.0 0.00 0.00 0.00 71 1012.9
20260505182214 55 0 0.0 0.0 0.00 0.00 0.00 71 1012.8
20260505181504 55 0 0.0 0.0 0.00 0.00 0.00 70 1012.9
20260505181003 56 0 0.0 0.0 0.00 0.00 0.00 69 1012.9
20260505180503 56 0 0.0 0.0 0.00 0.00 0.00 68 1012.9
20260505180003 56 0 0.0 0.0 0.00 0.00 0.00 67 1012.8
20260505175504 57 0 0.0 0.0 0.00 0.00 0.00 67 1012.7
20260505175004 57 0 0.0 0.0 0.00 0.00 0.00 67 1012.7
20260505174504 57 0 0.0 0.0 0.00 0.00 0.00 66 1012.7
20260505174004 57 0 0.0 0.0 0.00 0.00 0.00 65 1012.7
20260505173715 57 0 0.0 0.0 0.00 0.00 0.00 65 1012.7
20260505173003 58 0 0.0 0.0 0.00 0.00 0.00 65 1012.7
20260505172504 58 0 0.0 0.0 0.00 0.00 0.00 63 1012.8
20260505172003 58 0 0.0 0.0 0.00 0.00 0.00 63 1012.9
20260505171504 59 0 0.0 0.0 0.00 0.00 0.00 63 1012.8
20260505171004 59 0 0.0 0.0 0.00 0.00 0.00 61 1012.9
20260505170505 59 0 0.0 0.0 0.00 0.00 0.00 61 1013.0
20260505170004 59 0 0.0 0.0 0.00 0.00 0.00 62 1013.0
20260505165504 59 0 0.0 0.0 0.00 0.00 0.00 62 1013.0
20260505165004 60 0 0.0 0.0 0.00 0.00 0.00 60 1012.9
20260505164504 60 0 0.0 0.0 0.00 0.00 0.00 60 1013.0
20260505164003 60 0 0.0 0.0 0.00 0.00 0.00 58 1013.1
20260505163503 60 308 0.0 1.0 0.00 0.00 0.00 58 1013.0
20260505163213 60 308 0.0 1.0 0.00 0.00 0.00 60 1012.9
20260505162503 60 0 0.0 0.0 0.00 0.00 0.00 58 1012.9
20260505162003 60 0 0.0 0.0 0.00 0.00 0.00 59 1012.9
20260505161503 60 0 0.0 0.0 0.00 0.00 0.00 60 1013.0
20260505161213 60 0 0.0 0.0 0.00 0.00 0.00 61 1012.9
20260505160503 60 0 0.0 0.0 0.00 0.00 0.00 62 1013.0
20260505153213 60 0 0.0 0.0 0.00 0.00 0.00 58 1013.1
20260505152504 61 0 0.0 0.0 0.00 0.00 0.00 59 1013.0
20260505152003 61 0 0.0 0.0 0.00 0.00 0.00 57 1013.0
20260505151714 61 0 0.0 0.0 0.00 0.00 0.00 56 1013.0
20260505151004 62 0 0.0 0.0 0.00 0.00 0.00 57 1013.0
20260505150503 62 0 0.0 0.0 0.00 0.00 0.00 56 1013.0
20260505140504 63 0 0.0 0.0 0.00 0.00 0.00 58 1013.2
20260505125004 62 0 0.0 0.0 0.00 0.00 0.00 59 1013.5
20260505124504 62 0 0.0 0.0 0.00 0.00 0.00 60 1013.4
20260505124214 62 0 0.0 0.0 0.00 0.00 0.00 60 1013.5
20260505123715 62 0 0.0 0.0 0.00 0.00 0.00 58 1013.5
20260505123004 62 0 0.0 0.0 0.00 0.00 0.00 59 1013.5
20260505122503 62 0 0.0 0.0 0.00 0.00 0.00 59 1013.6
20260505122003 62 0 0.0 0.0 0.00 0.00 0.00 58 1013.6
20260505121503 62 0 0.0 0.0 0.00 0.00 0.00 59 1013.6
20260505121003 62 0 0.0 0.0 0.00 0.00 0.00 61 1013.7
20260505120504 62 0 0.0 0.0 0.00 0.00 0.00 61 1013.7
20260505120004 62 0 0.0 0.0 0.00 0.00 0.00 60 1013.6
20260505115504 62 308 0.0 1.0 0.00 0.00 0.00 60 1013.7
20260505115004 61 308 0.0 1.0 0.00 0.00 0.00 62 1013.7
20260505114503 61 0 0.0 0.0 0.00 0.00 0.00 62 1013.7
20260505114004 62 0 0.0 0.0 0.00 0.00 0.00 61 1013.7
20260505113503 62 0 0.0 0.0 0.00 0.00 0.00 60 1013.7
20260505113003 62 0 0.0 0.0 0.00 0.00 0.00 60 1013.8
20260505112503 62 0 0.0 0.0 0.00 0.00 0.00 60 1013.8
20260505112004 62 0 0.0 0.0 0.00 0.00 0.00 61 1013.8
20260505111504 62 308 0.0 1.0 0.00 0.00 0.00 60 1013.8
20260505111004 62 308 0.0 1.0 0.00 0.00 0.00 61 1013.7
20260505110504 62 0 0.0 0.0 0.00 0.00 0.00 60 1013.9
20260505102213 59 0 0.0 0.0 0.00 0.00 0.00 65 1014.1
20260505101504 59 0 0.0 0.0 0.00 0.00 0.00 66 1014.2
20260505101003 59 0 0.0 0.0 0.00 0.00 0.00 68 1014.2
20260505100503 58 0 0.0 0.0 0.00 0.00 0.00 69 1014.1
20260505100003 57 0 0.0 0.0 0.00 0.00 0.00 71 1014.3
20260505095503 57 309 0.0 0.0 0.00 0.00 0.00 74 1014.3
20260505095003 56 309 0.0 0.0 0.00 0.00 0.00 74 1014.1
20260505094503 55 0 0.0 0.0 0.00 0.00 0.00 74 1014.2
20260505094003 55 0 0.0 0.0 0.00 0.00 0.00 75 1014.3
20260505093503 55 0 0.0 0.0 0.00 0.00 0.00 77 1014.2
20260505093004 55 0 0.0 0.0 0.00 0.00 0.00 78 1014.2
20260505092503 55 0 0.0 0.0 0.00 0.00 0.00 78 1014.3
20260505092003 55 0 0.0 0.0 0.00 0.00 0.00 79 1014.4
20260505091503 55 0 0.0 0.0 0.00 0.00 0.00 79 1014.2
20260505091004 55 0 0.0 0.0 0.00 0.00 0.00 79 1014.2
20260505090713 55 0 0.0 0.0 0.00 0.00 0.00 79 1014.2
20260505090004 54 0 0.0 0.0 0.00 0.00 0.00 80 1014.3
20260505085504 54 0 0.0 0.0 0.00 0.00 0.00 80 1014.3
20260505085004 54 0 0.0 0.0 0.00 0.00 0.00 80 1014.3
20260505084504 54 0 0.0 0.0 0.00 0.00 0.00 81 1014.3
20260505084003 54 0 0.0 0.0 0.00 0.00 0.00 82 1014.3
20260505083503 54 0 0.0 0.0 0.00 0.00 0.00 83 1014.3
20260505083003 53 0 0.0 0.0 0.00 0.00 0.00 84 1014.3
20260505082504 53 0 0.0 0.0 0.00 0.00 0.00 84 1014.3
20260505082004 52 0 0.0 0.0 0.00 0.00 0.00 84 1014.3
20260505081504 52 0 0.0 0.0 0.00 0.00 0.00 84 1014.3
20260505081004 52 0 0.0 0.0 0.00 0.00 0.00 84 1014.2
20260505080504 52 0 0.0 0.0 0.00 0.00 0.00 84 1014.4
20260505080004 52 0 0.0 0.0 0.00 0.00 0.00 84 1014.3
20260505075713 52 0 0.0 0.0 0.00 0.00 0.00 84 1014.3
20260505075003 52 0 0.0 0.0 0.00 0.00 0.00 84 1014.3
20260505074503 51 0 0.0 0.0 0.00 0.00 0.00 84 1014.3
20260505074004 51 0 0.0 0.0 0.00 0.00 0.00 84 1014.4
20260505073504 51 0 0.0 0.0 0.00 0.00 0.00 84 1014.3
20260505073214 51 0 0.0 0.0 0.00 0.00 0.00 84 1014.3
20260505072504 51 0 0.0 0.0 0.00 0.00 0.00 83 1014.4
20260505072003 51 0 0.0 0.0 0.00 0.00 0.00 83 1014.4
20260505071503 50 0 0.0 0.0 0.00 0.00 0.00 83 1014.4
20260505071004 50 0 0.0 0.0 0.00 0.00 0.00 83 1014.4
20260505070503 50 0 0.0 0.0 0.00 0.00 0.00 83 1014.5
20260505070213 50 0 0.0 0.0 0.00 0.00 0.00 83 1014.5
20260505065504 50 0 0.0 0.0 0.00 0.00 0.00 83 1014.6
20260505065004 50 0 0.0 0.0 0.00 0.00 0.00 83 1014.4
20260505064504 49 0 0.0 0.0 0.00 0.00 0.00 83 1014.4
20260505064004 49 0 0.0 0.0 0.00 0.00 0.00 83 1014.4
20260505063504 49 0 0.0 0.0 0.00 0.00 0.00 83 1014.5
20260505063003 49 0 0.0 0.0 0.00 0.00 0.00 82 1014.5
20260505062503 49 0 0.0 0.0 0.00 0.00 0.00 82 1014.4
20260505062213 49 0 0.0 0.0 0.00 0.00 0.00 82 1014.4
20260505061503 49 0 0.0 0.0 0.00 0.00 0.00 82 1014.3
20260505061004 49 0 0.0 0.0 0.00 0.00 0.00 82 1014.3
20260505060504 49 0 0.0 0.0 0.00 0.00 0.00 82 1014.2
20260505060004 48 0 0.0 0.0 0.00 0.00 0.00 82 1014.3
20260505055504 48 0 0.0 0.0 0.00 0.00 0.00 82 1014.3
20260505055003 48 0 0.0 0.0 0.00 0.00 0.00 82 1014.2
20260505054503 48 0 0.0 0.0 0.00 0.00 0.00 82 1014.3
20260505054003 48 0 0.0 0.0 0.00 0.00 0.00 82 1014.2
20260505053503 48 0 0.0 0.0 0.00 0.00 0.00 82 1014.2
20260505053213 48 0 0.0 0.0 0.00 0.00 0.00 82 1014.2
20260505052714 48 0 0.0 0.0 0.00 0.00 0.00 82 1014.2
20260505052213 48 0 0.0 0.0 0.00 0.00 0.00 82 1014.0
20260505051504 48 0 0.0 0.0 0.00 0.00 0.00 82 1014.1
20260505051213 48 0 0.0 0.0 0.00 0.00 0.00 83 1014.1
20260505050504 48 0 0.0 0.0 0.00 0.00 0.00 83 1014.1
20260505050213 48 0 0.0 0.0 0.00 0.00 0.00 83 1014.0
20260505041503 48 0 0.0 0.0 0.00 0.00 0.00 83 1014.1
20260505041003 48 0 0.0 0.0 0.00 0.00 0.00 83 1014.0
20260505040503 48 0 0.0 0.0 0.00 0.00 0.00 83 1014.0
20260505040005 49 0 0.0 0.0 0.00 0.00 0.00 83 1013.9
20260505035504 49 0 0.0 0.0 0.00 0.00 0.00 83 1014.0
20260505035004 49 0 0.0 0.0 0.00 0.00 0.00 83 1013.9
20260505034504 49 0 0.0 0.0 0.00 0.00 0.00 83 1014.0
20260505034003 49 0 0.0 0.0 0.00 0.00 0.00 83 1013.9
20260505033504 49 0 0.0 0.0 0.00 0.00 0.00 83 1013.9
20260505033003 49 0 0.0 0.0 0.00 0.00 0.00 83 1014.0
20260505032713 49 0 0.0 0.0 0.00 0.00 0.00 83 1014.1
20260505032003 50 0 0.0 0.0 0.00 0.00 0.00 83 1014.0
20260505031504 50 0 0.0 0.0 0.00 0.00 0.00 83 1014.0
20260505031004 50 0 0.0 0.0 0.00 0.00 0.00 83 1014.0
20260505030504 50 0 0.0 0.0 0.00 0.00 0.00 83 1014.1
20260505030214 50 0 0.0 0.0 0.00 0.00 0.00 83 1014.0
20260505025713 50 0 0.0 0.0 0.00 0.00 0.00 83 1014.0
20260505025004 50 0 0.0 0.0 0.00 0.00 0.00 83 1014.0
20260505024503 50 0 0.0 0.0 0.00 0.00 0.00 83 1014.0
20260505024003 50 0 0.0 0.0 0.00 0.00 0.00 83 1014.0
20260505023713 50 0 0.0 0.0 0.00 0.00 0.00 83 1014.0
20260505023004 50 0 0.0 0.0 0.00 0.00 0.00 83 1014.1
20260505022504 50 0 0.0 0.0 0.00 0.00 0.00 83 1014.1
20260505022214 50 0 0.0 0.0 0.00 0.00 0.00 83 1014.1
20260505021503 50 0 0.0 0.0 0.00 0.00 0.00 83 1014.2
20260505021003 50 0 0.0 0.0 0.00 0.00 0.00 83 1014.2
20260505020713 51 0 0.0 0.0 0.00 0.00 0.00 83 1014.2
20260505020004 51 0 0.0 0.0 0.00 0.00 0.00 83 1014.2
20260505015503 51 0 0.0 0.0 0.00 0.00 0.00 84 1014.4
20260505015003 51 0 0.0 0.0 0.00 0.00 0.00 84 1014.3
20260505014504 51 0 0.0 0.0 0.00 0.00 0.00 84 1014.4
20260505014004 51 0 0.0 0.0 0.00 0.00 0.00 84 1014.4
20260505013504 51 0 0.0 0.0 0.00 0.00 0.00 84 1014.5
20260505013214 51 0 0.0 0.0 0.00 0.00 0.00 83 1014.5
20260505012503 51 0 0.0 0.0 0.00 0.00 0.00 84 1014.6
20260505012003 51 0 0.0 0.0 0.00 0.00 0.00 83 1014.5
20260505011503 51 0 0.0 0.0 0.00 0.00 0.00 83 1014.6
20260505011003 51 0 0.0 0.0 0.00 0.00 0.00 83 1014.6
20260505010714 51 0 0.0 0.0 0.00 0.00 0.00 83 1014.6
20260505010004 51 0 0.0 0.0 0.00 0.00 0.00 83 1014.6
20260505005504 52 0 0.0 0.0 0.00 0.00 0.00 83 1014.6
20260505005213 52 0 0.0 0.0 0.00 0.00 0.00 83 1014.6
20260505004504 52 0 0.0 0.0 0.00 0.00 0.00 83 1014.6
20260505004003 52 0 0.0 0.0 0.00 0.00 0.00 83 1014.7
20260505003504 52 0 0.0 0.0 0.00 0.00 0.00 83 1014.8
20260505003003 52 0 0.0 0.0 0.00 0.00 0.00 83 1014.8
20260505002503 52 0 0.0 0.0 0.00 0.00 0.00 83 1014.8
20260505002003 52 0 0.0 0.0 0.00 0.00 0.00 83 1014.9
20260505001503 52 0 0.0 0.0 0.00 0.00 0.00 83 1014.9
20260505001003 52 0 0.0 0.0 0.00 0.00 0.00 83 1014.8
20260505000503 52 0 0.0 0.0 0.00 0.00 0.00 83 1015.0
20260505000003 52 0 0.0 0.0 0.00 0.00 0.00 83 1015.0
20260504235503 52 0 0.0 0.0 0.00 0.00 0.00 83 1015.0
20260504235213 52 0 0.0 0.0 0.00 0.00 0.00 83 1015.0
20260504234503 52 0 0.0 0.0 0.00 0.00 0.00 83 1015.1
20260504234003 52 0 0.0 0.0 0.00 0.00 0.00 83 1015.0
20260504233714 52 0 0.0 0.0 0.00 0.00 0.00 83 1015.1
20260504233004 52 0 0.0 0.0 0.00 0.00 0.00 84 1015.1
20260504232714 52 0 0.0 0.0 0.00 0.00 0.00 84 1015.0
20260504232004 52 0 0.0 0.0 0.00 0.00 0.00 84 1014.9
20260504231714 52 0 0.0 0.0 0.00 0.00 0.00 84 1014.9
20260504231213 52 0 0.0 0.0 0.00 0.00 0.00 84 1014.9
20260504230503 52 0 0.0 0.0 0.00 0.00 0.00 84 1015.0
20260504230005 52 0 0.0 0.0 0.00 0.00 0.00 84 1014.9
20260504225503 52 0 0.0 0.0 0.00 0.00 0.00 84 1014.8
20260504225215 53 0 0.0 0.0 0.00 0.00 0.00 84 1014.7
20260504224504 53 0 0.0 0.0 0.00 0.00 0.00 84 1014.7
20260504224004 53 0 0.0 0.0 0.00 0.00 0.00 84 1014.8
20260504223713 53 0 0.0 0.0 0.00 0.00 0.00 84 1014.8
20260504223214 53 0 0.0 0.0 0.00 0.00 0.00 84 1014.9
20260504222504 53 309 0.0 1.0 0.00 0.00 0.00 84 1014.9
20260504222214 53 309 0.0 1.0 0.00 0.00 0.00 84 1015.0
20260504221503 54 0 0.0 0.0 0.00 0.00 0.00 84 1015.1
20260504221003 54 0 0.0 0.0 0.00 0.00 0.00 84 1015.1
20260504220504 54 0 0.0 0.0 0.00 0.00 0.00 84 1015.1
20260504220004 54 0 0.0 0.0 0.00 0.00 0.00 84 1015.1
20260504215504 54 0 0.0 0.0 0.00 0.00 0.00 84 1015.2
20260504215004 54 0 0.0 0.0 0.00 0.00 0.00 84 1015.2
20260504214504 54 0 0.0 0.0 0.00 0.00 0.00 84 1015.2
20260504214003 54 0 0.0 0.0 0.00 0.00 0.00 84 1015.1
20260504213503 54 0 0.0 0.0 0.00 0.00 0.00 84 1015.1
20260504213003 54 0 0.0 0.0 0.00 0.00 0.00 84 1015.1
20260504212503 54 0 0.0 0.0 0.00 0.00 0.00 84 1015.1
20260504212004 54 0 0.0 0.0 0.00 0.00 0.00 84 1015.0
20260504211504 54 0 0.0 0.0 0.00 0.00 0.00 84 1015.0
20260504211004 54 0 0.0 0.0 0.00 0.00 0.00 84 1015.1
20260504210504 54 0 0.0 0.0 0.00 0.00 0.00 84 1015.0
20260504210004 54 0 0.0 0.0 0.00 0.00 0.00 84 1015.0
20260504205504 54 0 0.0 0.0 0.00 0.00 0.00 84 1015.0
20260504205004 54 0 0.0 0.0 0.00 0.00 0.00 84 1015.0
20260504204503 54 0 0.0 0.0 0.00 0.00 0.00 84 1014.9
20260504204003 55 0 0.0 0.0 0.00 0.00 0.00 84 1014.9
20260504203504 55 0 0.0 0.0 0.00 0.00 0.00 84 1014.9
20260504203004 55 0 0.0 0.0 0.00 0.00 0.00 84 1014.9
20260504202504 55 0 0.0 0.0 0.00 0.00 0.00 84 1014.9
20260504202004 55 0 0.0 0.0 0.00 0.00 0.00 84 1014.9
20260504201503 55 0 0.0 0.0 0.00 0.00 0.00 84 1014.9